Temperature
22 22 21 21 21 22 22 23 24 24 24 24 24 24 23 22 21 19 18 18 18 18 18 18 18 17 17 17 17 17 18 18 18 18 18 18 17 17 17 18 18 18 18 18 18 18 18 18 18
22 22 22 22 22 22 22 23 23 23 24 24 24 23 22 21 20 19 18 18 18 18 17 18 17 17 17 17 17 17 18 18 18 18 17 17 17 17 17 17 17 17 18 18 18 18 18 18 18
22 22 23 23 23 22 22 23 23 24 24 24 23 23 22 20 20 19 18 18 18 18 18 18 17 17 17 17 17 17 17 17 17 17 17 17 17 17 17 17 17 17 17 17 17 17 17 18 18
22 23 24 23 23 23 23 24 24 24 24 24 23 22 20 20 19 18 18 18 18 18 18 18 18 17 17 17 17 17 17 17 17 17 17 17 17 17 17 17 17 17 17 17 17 17 17 17 17
23 23 23 23 23 24 24 25 25 24 24 23 23 21 20 19 19 19 19 18 18 18 18 18 18 17 17 17 17 17 17 17 17 17 17 17 17 17 17 17 17 17 17 17 17 17 17 17 17
23 24 23 22 23 24 24 24 24 24 24 23 23 21 19 19 19 19 18 18 18 18 18 18 18 17 17 17 17 17 17 17 17 17 17 17 17 17 17 17 17 17 17 17 17 17 17 17 17
24 23 23 23 23 23 24 24 24 24 24 23 23 21 19 19 19 18 18 18 18 18 18 18 18 17 17 17 17 17 17 17 17 17 17 17 17 17 17 17 17 17 17 17 17 17 17 17 17
24 24 23 23 23 23 24 24 24 24 23 23 23 21 20 19 19 18 18 18 18 18 18 17 17 17 17 17 17 17 17 17 17 17 17 17 17 17 17 17 16 16 16 16 17 17 16 16 16
24 23 23 23 23 23 24 24 24 23 23 23 22 21 20 19 19 19 18 18 18 18 18 17 17 17 17 17 17 17 17 17 17 17 17 17 16 16 16 16 16 16 16 16 16 16 16 16 16
24 22 23 24 25 24 24 24 24 24 23 22 21 20 19 19 19 19 19 18 18 18 18 17 17 17 17 17 17 17 17 16 17 16 16 16 16 16 16 16 16 16 16 16 16 16 16 16 16
25 24 24 25 25 24 24 24 24 23 22 22 21 20 20 19 19 19 19 18 18 18 18 17 17 17 17 17 17 17 16 16 16 16 16 16 16 16 16 16 16 16 16 16 16 16 16 16 16
25 24 25 25 24 24 24 24 23 23 22 22 21 20 20 19 19 19 19 18 18 18 18 17 17 17 17 17 17 17 17 16 16 16 16 16 16 16 16 16 16 15 15 16 16 16 15 15 15
24 24 24 24 24 24 24 23 23 22 22 21 21 20 20 20 19 19 19 18 18 18 18 17 17 17 17 17 17 17 16 16 16 16 16 16 16 16 16 16 15 15 15 15 15 15 15 15 15
25 24 24 24 24 24 23 23 22 22 22 21 21 20 20 19 19 19 19 18 18 18 17 17 17 17 17 17 17 17 16 16 16 16 16 16 16 16 16 16 15 15 15 15 15 15 15 15 15
24 24 24 24 24 24 23 22 23 22 22 21 21 20 20 19 19 19 19 18 18 18 17 17 17 17 17 17 16 16 16 16 16 16 16 16 16 16 16 15 15 15 15 15 15 15 15 15 15
25 23 22 23 24 24 23 21 23 22 22 21 21 20 20 19 19 19 19 18 18 18 17 17 17 17 16 16 16 16 16 16 16 16 16 16 16 16 15 15 15 15 15 15 15 15 15 15 15
24 23 23 23 24 24 23 22 22 22 22 22 21 21 20 20 19 19 18 18 18 17 17 17 17 16 16 16 16 16 16 16 16 16 16 16 16 16 15 15 15 15 15 15 15 15 15 15 15
23 23 23 23 24 24 23 23 22 22 22 22 22 21 20 20 19 19 18 18 18 17 17 16 16 16 16 16 16 16 16 16 16 16 16 16 15 15 15 15 15 15 15 15 14 14 14 14 14
24 24 24 24 25 24 23 23 23 23 23 22 22 21 21 20 19 19 18 18 17 17 17 16 16 16 16 16 15 15 15 15 15 15 15 15 15 15 15 15 15 15 14 14 14 14 14 14 14
25 24 24 24 25 24 23 24 24 23 23 22 22 22 21 20 19 19 18 17 17 17 16 16 16 16 16 15 15 15 15 15 15 15 15 15 15 15 15 15 15 14 14 14 14 14 14 14 14
25 24 24 24 24 24 24 23 23 24 23 23 22 22 21 21 20 19 18 17 17 17 16 16 16 16 16 15 15 15 15 15 15 15 15 15 15 15 15 14 14 14 14 14 14 14 14 14 14
24 25 24 24 23 23 24 22 23 23 23 23 22 22 21 21 20 19 18 17 17 17 16 16 16 16 15 15 15 15 15 15 15 15 15 15 15 15 14 14 14 14 14 14 14 14 14 14 14
24 24 24 24 23 23 23 23 22 23 22 22 22 22 21 20 20 19 18 17 17 16 16 16 16 16 15 15 15 15 15 15 14 14 14 14 14 14 14 14 14 14 14 14 14 14 14 14 14
25 24 24 24 23 22 23 23 22 23 22 22 22 22 21 20 20 19 18 17 17 16 16 16 16 15 15 15 15 15 15 15 14 14 14 14 14 14 14 14 14 14 14 14 14 14 14 14 13
24 23 22 21 21 22 24 23 22 23 24 23 22 22 21 20 19 18 18 17 16 16 16 15 15 15 15 15 15 15 14 14 14 14 14 14 14 14 14 14 14 14 14 14 14 14 13 13 13
24 23 21 20 21 22 23 22 22 23 23 23 23 22 21 20 19 18 17 17 16 16 15 15 15 15 15 15 15 14 14 14 14 14 14 14 14 14 14 14 14 14 14 14 14 14 13 13 13
23 23 24 23 23 22 23 23 22 23 23 22 22 21 20 20 19 18 17 17 16 15 15 15 15 15 15 14 14 14 14 14 14 14 14 14 14 14 14 14 14 14 14 14 13 13 13 13 13
24 23 23 22 21 21 22 22 21 21 22 22 21 21 20 19 18 18 17 16 16 15 15 15 15 14 14 14 14 14 14 14 14 14 13 14 13 13 14 14 14 13 13 13 13 13 13 13 13
23 23 23 22 22 21 21 21 23 22 22 21 21 20 20 19 18 17 17 16 16 15 15 14 14 14 14 14 14 14 14 14 14 14 13 13 13 13 13 13 13 13 13 13 13 13 13 13 13
23 23 23 21 21 22 21 21 23 22 22 21 21 20 19 18 18 17 16 16 15 15 14 14 14 14 14 14 13 13 13 13 13 13 13 13 13 13 13 13 13 13 13 13 13 13 13 12 12
Wind_Speed
9 10 7 2 2 1 5 5 6 6 6 7 8 8 11 12 8 7 2 5 7 8 9 10 10 11 11 12 12 12 12 13 13 14 14 13 13 13 13 13 13 13 12 12 13 13 13 12 12
9 6 4 3 2 2 5 5 8 7 5 5 6 10 12 11 11 7 3 5 7 9 10 11 10 11 12 12 13 13 13 13 14 14 15 14 13 13 14 14 13 13 12 13 13 13 12 12 12
10 7 4 2 1 3 5 7 7 7 5 5 6 9 7 7 8 5 4 4 8 10 12 11 11 11 12 13 13 13 14 14 15 14 14 14 14 13 14 14 13 13 12 12 13 12 12 12 11
6 4 3 1 6 7 7 7 7 7 6 6 7 8 8 8 6 6 5 6 8 9 12 11 11 12 12 13 13 13 14 15 15 15 15 14 14 14 14 14 13 13 13 13 13 12 12 12 11
4 3 1 3 8 8 7 6 7 7 6 7 9 10 9 9 9 7 5 6 8 9 11 12 12 13 13 13 13 14 14 15 15 15 15 14 14 14 13 13 14 14 14 14 13 13 13 12 11
3 2 1 5 8 6 6 6 7 8 8 8 8 9 7 8 7 6 6 6 8 9 10 11 13 12 13 13 14 14 15 15 14 14 14 14 13 13 14 14 14 14 14 14 13 13 12 12 11
3 1 1 6 7 6 6 6 6 6 7 6 6 8 7 7 6 5 6 6 7 8 8 9 11 11 12 12 13 13 13 13 13 13 13 13 13 13 13 14 14 13 12 13 12 12 11 11 10
3 0 2 4 6 6 5 6 6 5 6 6 6 6 7 7 6 6 6 6 6 6 6 7 9 11 10 10 11 11 11 10 10 10 10 11 11 12 12 13 13 12 12 12 11 11 10 10 9
3 0 2 4 5 5 5 5 6 6 7 8 10 11 10 9 7 6 6 6 5 6 5 6 7 8 9 9 10 9 8 7 7 7 7 7 7 8 10 11 12 11 11 10 9 8 8 8 7
0 1 4 5 6 6 6 5 4 5 7 7 10 11 11 8 7 6 6 6 5 5 4 4 6 6 7 7 7 6 6 5 4 5 5 6 7 8 9 9 10 9 9 8 6 6 5 5 5
2 3 5 6 7 6 6 5 4 5 5 6 9 10 9 7 6 6 5 5 5 5 4 4 5 6 6 5 4 4 4 4 5 6 6 7 7 6 6 5 6 6 5 4 4 3 3 5 6
3 4 4 6 6 5 5 5 6 6 5 7 9 9 8 7 6 5 5 6 5 5 4 4 4 4 5 5 3 4 3 3 3 4 6 5 4 3 3 3 4 4 4 4 4 4 6 7 7
3 4 5 5 5 5 5 5 5 6 7 8 9 9 6 5 6 6 6 6 6 5 4 4 4 4 4 5 3 4 3 3 4 4 4 6 4 3 3 4 5 6 5 5 4 6 7 6 7
4 5 5 4 5 5 5 5 4 5 7 8 8 7 6 5 5 5 5 4 5 4 4 3 3 3 4 4 3 3 3 4 4 4 4 6 5 4 4 4 5 5 5 5 5 6 5 4 5
6 5 4 4 4 4 4 3 4 7 7 8 7 7 7 5 5 4 4 4 4 4 4 3 3 3 4 3 4 3 4 4 3 3 4 6 6 5 5 4 4 4 5 6 6 6 5 5 5
6 5 4 5 5 5 4 3 5 7 8 7 7 7 6 5 5 4 4 3 4 5 4 3 3 4 4 3 4 3 4 4 4 4 5 6 6 7 6 4 3 5 6 4 4 4 4 4 4
6 5 5 5 6 5 5 3 6 7 8 7 7 7 6 6 5 5 4 4 4 5 5 4 4 4 4 3 3 3 4 4 4 4 5 5 6 7 6 4 3 5 4 3 4 4 4 4 4
5 5 5 5 6 6 5 5 7 7 7 7 6 7 7 6 5 6 5 4 4 4 5 5 4 4 4 3 2 2 3 3 4 4 5 6 6 7 5 3 4 5 4 4 3 4 3 2 2
5 6 5 4 6 6 6 6 8 8 7 6 6 7 7 7 7 6 6 4 4 4 5 5 4 3 3 2 2 2 2 2 3 3 5 4 5 5 4 3 4 4 3 3 3 3 3 2 2
7 6 5 4 5 5 6 7 8 10 9 7 7 6 7 7 8 7 6 5 4 4 5 4 3 4 4 3 2 2 3 2 2 2 3 3 4 5 3 4 3 3 3 3 4 3 2 1 1
7 6 5 3 4 7 6 7 8 10 8 7 6 6 7 7 8 8 6 5 4 4 4 4 3 4 5 4 2 2 2 2 2 2 1 2 3 4 3 3 3 2 2 2 2 2 2 1 2
6 4 5 5 5 5 7 5 7 9 9 9 7 5 6 7 7 7 7 6 5 4 4 4 3 4 5 5 3 3 3 2 1 1 1 1 2 3 3 3 2 2 2 2 1 2 1 1 1
4 4 6 7 7 8 9 6 4 7 7 8 7 6 6 7 7 7 7 6 5 4 3 3 4 4 4 4 3 3 2 2 1 2 2 1 1 2 2 2 2 2 2 2 2 3 2 1 1
5 7 9 9 6 9 9 7 3 5 6 7 6 6 7 7 8 8 7 6 4 4 4 3 3 4 4 4 3 3 2 2 2 2 1 1 1 1 1 1 1 1 2 2 2 2 2 2 2
8 6 4 5 5 6 5 4 2 5 5 6 6 6 6 6 7 7 7 6 5 5 4 4 4 3 3 3 3 2 2 2 3 2 2 1 1 0 1 1 1 1 1 2 1 2 2 1 2
8 8 5 4 3 4 5 5 3 6 6 5 4 5 6 6 6 7 7 6 5 5 4 4 4 4 3 3 3 3 3 1 2 2 2 2 1 1 1 1 1 1 1 2 2 1 1 1 2
8 8 7 7 9 7 4 4 5 7 6 5 4 5 5 5 5 6 6 6 6 5 4 3 4 4 3 2 2 3 3 2 2 2 2 1 2 1 1 1 2 2 2 1 1 1 0 1 1
9 8 5 6 5 5 4 4 4 7 7 6 4 5 4 5 5 5 5 5 5 5 4 4 3 3 3 2 2 2 2 2 2 2 3 2 2 2 1 1 2 2 2 2 2 1 1 1 1
9 9 6 5 6 5 4 1 3 6 5 5 5 5 4 5 5 5 5 5 5 5 4 4 3 3 3 2 2 2 2 2 2 1 1 2 2 2 3 2 2 3 2 2 2 2 1 1 1
7 8 7 6 6 6 5 1 4 6 6 5 5 5 5 4 4 5 5 4 4 4 4 4 3 3 3 3 2 2 2 2 2 2 1 1 2 2 2 2 1 2 3 3 3 2 2 1 1
Wind_Direction
260 244 238 242 252 189 77 78 74 57 63 57 49 64 64 52 52 83 101 55 68 79 78 70 62 55 54 56 56 56 56 57 59 60 69 74 74 76 76 74 74 75 78 79 79 78 79 79 76
268 256 254 233 238 110 86 87 74 66 72 77 64 66 70 64 70 90 79 59 71 76 77 74 72 63 60 60 60 59 58 60 62 64 69 72 74 75 76 76 76 76 77 78 78 78 78 77 75
263 257 255 254 57 81 95 89 91 87 74 69 78 63 58 65 69 83 94 88 80 79 80 80 79 71 66 63 62 62 61 63 64 65 70 72 74 76 78 77 76 76 77 79 80 80 78 77 74
259 249 245 78 75 73 87 104 107 100 87 71 82 81 70 61 75 91 97 90 90 88 88 91 86 80 73 67 64 64 65 65 66 66 70 73 75 76 78 79 78 78 78 80 82 82 79 77 72
243 245 192 99 86 83 79 88 95 94 87 76 83 94 87 78 86 95 94 87 89 91 93 97 94 87 81 75 70 68 68 67 67 67 69 73 76 76 77 78 79 80 80 81 83 82 79 75 71
267 259 151 108 99 93 93 90 89 88 88 89 93 95 90 92 88 90 94 87 88 93 99 102 104 96 89 84 77 73 71 70 69 68 68 69 72 76 79 79 80 80 81 82 83 81 78 74 71
270 301 129 116 109 101 89 81 87 87 85 74 88 99 105 102 96 96 93 90 92 97 104 113 114 106 97 91 86 79 75 73 72 72 71 73 74 76 78 79 79 79 81 83 81 78 75 73 71
286 330 110 107 109 103 99 97 90 87 80 78 79 93 114 121 125 113 98 91 90 96 101 108 115 115 109 102 97 91 85 80 78 77 75 75 76 80 80 80 81 80 81 86 84 82 78 74 70
295 131 97 103 115 114 120 110 100 93 86 73 73 90 110 128 129 123 113 101 92 89 93 103 103 110 112 109 107 111 103 92 89 85 81 86 87 87 86 86 89 88 86 88 89 89 87 80 72
175 71 91 99 109 119 120 105 113 113 99 94 91 100 116 129 131 127 119 112 103 92 85 97 101 103 104 100 113 118 112 112 104 99 101 86 83 82 85 94 102 102 99 95 96 91 85 83 79
126 94 97 100 105 116 115 106 87 100 96 101 114 122 127 130 124 119 113 109 106 101 93 88 93 97 99 96 102 100 97 97 85 73 74 79 81 89 96 104 110 115 113 100 97 98 73 75 75
113 93 92 104 106 110 106 98 85 79 82 94 112 122 129 137 132 122 115 115 114 106 102 85 81 93 103 101 99 101 96 79 79 78 76 76 69 64 78 91 102 95 72 61 68 72 62 65 73
134 124 111 106 119 116 107 100 96 95 99 103 113 121 132 130 122 118 119 116 113 112 102 91 82 78 80 81 81 89 87 85 84 75 79 83 80 70 68 77 73 75 72 67 61 66 61 55 56
133 123 124 132 134 138 127 120 119 121 119 120 124 129 132 120 117 114 112 118 122 123 112 102 88 83 86 93 92 83 85 81 75 72 71 79 79 74 71 71 66 67 65 70 73 79 67 64 64
144 141 151 164 173 157 145 145 141 140 137 135 139 139 129 125 120 112 112 112 124 121 111 114 112 100 85 85 85 86 90 85 74 69 67 73 76 78 76 76 75 76 69 64 66 68 68 64 65
186 190 188 180 188 174 185 171 145 151 152 148 149 140 137 136 130 121 115 117 120 118 111 104 108 92 85 73 77 76 85 84 73 62 57 66 70 73 70 70 75 78 73 69 68 65 61 61 60
201 205 191 182 186 177 195 174 167 165 161 158 157 151 152 148 142 134 124 111 100 103 111 106 96 97 94 90 82 75 78 79 75 70 58 53 64 69 71 64 65 75 77 72 65 66 67 64 61
212 213 209 193 181 185 199 183 175 181 178 169 167 161 163 159 151 135 124 109 104 104 106 105 95 106 106 93 86 78 74 73 68 66 66 58 61 66 68 67 61 63 67 70 72 74 66 63 60
236 231 219 199 179 192 212 205 182 187 188 178 177 172 169 163 146 134 126 117 111 103 103 102 108 108 98 87 94 97 81 73 68 64 65 66 72 73 72 62 61 56 63 72 79 82 75 67 71
244 245 233 192 180 198 220 223 186 183 186 182 183 181 167 156 146 138 134 129 131 124 117 120 117 120 111 102 96 110 109 92 92 68 61 58 68 71 82 89 82 72 62 57 64 67 58 23 42
245 252 245 226 207 225 237 227 192 181 173 177 186 178 161 157 152 148 145 138 140 133 133 137 135 121 119 118 99 90 98 93 86 86 55 44 67 69 61 71 91 98 94 88 79 72 63 6 355
247 262 263 248 238 240 234 235 194 181 172 178 181 177 160 153 150 149 150 148 149 142 139 144 137 124 123 127 123 119 110 124 146 135 121 73 65 65 64 70 71 87 84 101 103 85 62 50 3
245 256 257 251 251 258 243 246 200 182 177 178 175 174 163 154 149 149 148 145 148 138 137 144 137 127 122 122 132 140 138 145 130 114 115 95 68 69 64 71 64 87 93 101 86 80 67 55 47
243 244 241 242 248 251 238 239 208 188 180 175 173 171 165 159 152 148 143 137 138 132 137 141 133 126 129 136 146 156 157 137 120 116 126 120 90 90 100 109 82 81 105 100 95 98 89 67 44
230 243 238 222 220 236 220 224 196 131 143 150 161 166 158 151 151 149 146 145 141 145 150 155 143 137 142 153 157 154 155 168 154 157 167 158 146 169 225 149 142 139 126 117 104 102 120 105 78
233 233 232 245 256 266 222 206 152 120 116 120 122 131 140 140 146 147 147 145 143 142 148 157 156 153 158 172 171 158 152 164 164 166 161 169 171 193 183 161 147 123 104 109 102 78 89 107 101
238 238 243 261 269 265 219 163 144 133 130 123 120 116 118 131 133 138 142 144 146 148 151 158 160 153 155 160 151 157 165 165 180 179 171 173 170 193 185 173 162 140 125 114 110 125 128 106 115
243 249 255 248 262 267 247 195 166 157 149 137 136 127 125 128 132 132 142 151 154 156 160 161 161 164 155 150 153 160 157 173 181 177 179 180 181 173 181 204 179 160 160 157 139 159 214 165 143
225 232 236 249 256 260 267 195 122 144 131 132 133 134 135 131 136 138 143 154 151 153 158 159 161 160 162 166 174 168 171 169 124 138 194 182 184 183 194 203 188 171 163 157 154 178 215 199 144
246 246 244 241 258 270 268 180 110 121 120 121 121 125 133 131 135 133 135 139 142 150 160 165 171 167 171 174 180 184 174 156 159 180 183 180 186 187 188 196 199 185 170 165 170 192 202 170 149
Height
1484 1484 1484 1486 1488 1490 1493 1491 1487 1489 1490 1492 1492 1493 1496 1500 1504 1514 1513 1511 1510 1508 1506 1505 1505 1504 1503 1502 1501 1500 1499 1498 1496 1494 1493 1495 1497 1499 1500 1501 1501 1502 1503 1504 1504 1505 1506 1507 1508
1483 1485 1486 1486 1489 1497 1498 1490 1491 1492 1492 1493 1494 1495 1498 1503 1507 1510 1511 1511 1511 1509 1507 1506 1506 1505 1504 1504 1503 1502 1501 1500 1499 1497 1497 1498 1500 1501 1502 1502 1503 1504 1505 1505 1506 1507 1508 1509 1510
1484 1485 1486 1484 1488 1495 1496 1491 1492 1492 1493 1494 1495 1498 1502 1507 1510 1511 1512 1512 1511 1510 1509 1508 1507 1507 1506 1506 1505 1504 1504 1503 1502 1501 1501 1501 1502 1503 1504 1504 1505 1506 1506 1507 1507 1508 1509 1510 1511
1485 1486 1484 1486 1491 1489 1489 1490 1491 1492 1494 1495 1496 1501 1507 1510 1511 1512 1512 1513 1512 1511 1510 1509 1509 1508 1508 1508 1507 1507 1506 1505 1505 1505 1505 1505 1505 1505 1506 1506 1507 1507 1508 1508 1509 1510 1510 1511 1512
1485 1485 1486 1491 1491 1489 1488 1489 1491 1493 1495 1497 1499 1504 1509 1512 1512 1513 1513 1514 1513 1513 1512 1511 1511 1510 1510 1510 1509 1509 1508 1508 1507 1507 1507 1508 1508 1508 1508 1508 1508 1509 1509 1510 1510 1511 1512 1512 1513
1486 1482 1491 1496 1493 1490 1490 1491 1492 1495 1497 1499 1501 1505 1511 1513 1513 1514 1514 1515 1515 1514 1513 1513 1512 1512 1512 1512 1512 1511 1511 1510 1510 1510 1510 1510 1510 1510 1510 1510 1510 1511 1511 1511 1512 1513 1513 1514 1515
1486 1485 1490 1491 1494 1494 1492 1493 1495 1496 1498 1500 1501 1506 1511 1513 1514 1515 1516 1516 1516 1515 1515 1515 1514 1514 1514 1514 1514 1514 1513 1513 1513 1513 1512 1512 1512 1512 1512 1512 1512 1512 1513 1513 1514 1514 1515 1516 1516
1484 1485 1489 1490 1495 1496 1494 1495 1497 1498 1500 1502 1503 1506 1511 1514 1515 1516 1516 1517 1517 1517 1517 1517 1517 1516 1516 1516 1516 1516 1516 1516 1515 1515 1515 1514 1514 1513 1513 1513 1514 1514 1515 1515 1515 1516 1517 1518 1518
1484 1489 1493 1492 1494 1495 1495 1496 1498 1500 1502 1503 1505 1508 1511 1514 1515 1516 1517 1517 1518 1518 1519 1519 1519 1518 1518 1518 1518 1518 1518 1518 1517 1517 1517 1516 1516 1515 1515 1515 1516 1516 1517 1517 1518 1518 1519 1520 1520
1485 1491 1491 1488 1489 1493 1495 1497 1498 1500 1502 1505 1508 1510 1512 1514 1515 1517 1518 1518 1519 1520 1520 1520 1520 1520 1520 1520 1520 1520 1520 1520 1520 1519 1519 1519 1518 1518 1517 1517 1517 1518 1519 1519 1520 1520 1521 1522 1522
1485 1488 1488 1489 1491 1493 1495 1497 1499 1500 1504 1506 1508 1511 1513 1515 1516 1517 1518 1519 1520 1521 1521 1522 1522 1522 1522 1522 1522 1522 1522 1522 1522 1522 1522 1521 1521 1520 1519 1519 1519 1520 1521 1522 1522 1523 1523 1524 1524
1486 1488 1488 1490 1493 1494 1496 1498 1501 1503 1506 1507 1509 1511 1513 1515 1516 1518 1519 1520 1520 1521 1522 1523 1523 1523 1523 1523 1523 1523 1523 1524 1524 1523 1523 1523 1523 1522 1522 1522 1522 1522 1523 1523 1524 1524 1525 1526 1526
1487 1489 1491 1493 1494 1496 1498 1500 1502 1504 1506 1508 1510 1512 1514 1515 1517 1518 1519 1520 1521 1522 1523 1523 1523 1524 1524 1524 1524 1524 1525 1525 1525 1525 1525 1525 1524 1524 1524 1524 1525 1525 1525 1526 1526 1526 1527 1527 1527
1488 1489 1492 1494 1495 1497 1498 1501 1503 1505 1507 1509 1511 1513 1514 1516 1517 1518 1519 1520 1521 1522 1523 1523 1524 1524 1524 1524 1525 1525 1526 1526 1526 1526 1526 1526 1526 1526 1526 1526 1527 1527 1527 1528 1528 1528 1528 1529 1529
1488 1491 1493 1494 1495 1496 1499 1502 1502 1505 1507 1509 1511 1513 1514 1516 1517 1518 1519 1521 1521 1522 1522 1523 1524 1524 1524 1525 1525 1526 1526 1527 1527 1527 1527 1527 1527 1527 1527 1528 1528 1529 1529 1530 1530 1530 1530 1530 1530
1487 1492 1498 1494 1494 1495 1501 1507 1502 1504 1506 1508 1510 1512 1514 1516 1518 1519 1520 1521 1521 1522 1522 1523 1524 1524 1525 1525 1526 1526 1527 1527 1528 1528 1528 1529 1529 1529 1529 1529 1530 1530 1531 1531 1531 1531 1531 1531 1532
1489 1496 1497 1494 1491 1493 1498 1503 1501 1503 1504 1507 1509 1511 1514 1515 1517 1518 1519 1520 1521 1521 1522 1523 1524 1524 1525 1525 1526 1526 1527 1528 1528 1529 1529 1530 1530 1530 1530 1531 1531 1532 1532 1532 1532 1532 1532 1533 1533
1494 1493 1493 1493 1490 1492 1496 1499 1499 1501 1502 1505 1507 1510 1512 1514 1516 1518 1519 1520 1521 1521 1522 1522 1523 1524 1525 1525 1526 1527 1528 1528 1528 1529 1530 1530 1531 1531 1531 1531 1532 1532 1533 1533 1533 1533 1534 1534 1534
1484 1487 1490 1489 1486 1490 1494 1495 1496 1498 1500 1503 1505 1507 1510 1512 1515 1517 1518 1519 1520 1521 1521 1522 1523 1524 1524 1525 1526 1527 1528 1528 1529 1530 1530 1531 1531 1532 1532 1532 1533 1533 1533 1534 1534 1534 1534 1535 1535
1482 1486 1488 1486 1485 1488 1492 1493 1492 1495 1497 1500 1502 1505 1507 1510 1513 1515 1517 1518 1520 1520 1521 1522 1523 1523 1524 1525 1526 1527 1528 1529 1529 1530 1530 1531 1532 1532 1532 1533 1533 1533 1534 1534 1534 1535 1535 1535 1535
1482 1485 1487 1488 1486 1486 1490 1493 1491 1490 1494 1497 1500 1502 1505 1508 1510 1513 1515 1517 1519 1520 1521 1522 1522 1523 1524 1525 1526 1527 1528 1529 1529 1530 1531 1531 1532 1532 1532 1533 1533 1534 1534 1534 1534 1535 1535 1535 1536
1486 1481 1483 1485 1491 1494 1490 1503 1492 1487 1491 1494 1497 1500 1502 1506 1508 1511 1514 1516 1517 1519 1520 1521 1522 1523 1523 1524 1525 1526 1527 1528 1529 1530 1531 1531 1532 1532 1532 1533 1533 1533 1534 1534 1534 1535 1535 1535 1535
1482 1480 1482 1484 1489 1493 1489 1496 1494 1485 1490 1492 1494 1497 1500 1504 1506 1509 1512 1514 1516 1518 1519 1520 1521 1522 1523 1524 1525 1526 1527 1528 1529 1529 1530 1531 1531 1532 1532 1532 1533 1533 1533 1534 1534 1534 1535 1535 1535
1478 1481 1482 1482 1488 1501 1488 1493 1496 1486 1487 1488 1491 1495 1498 1501 1505 1507 1510 1513 1515 1516 1518 1519 1520 1521 1522 1523 1524 1525 1526 1527 1527 1528 1529 1530 1530 1531 1531 1531 1532 1532 1532 1533 1533 1534 1534 1534 1535
1478 1487 1499 1502 1504 1498 1481 1488 1491 1480 1480 1484 1489 1492 1496 1499 1503 1505 1508 1511 1512 1514 1516 1518 1519 1520 1521 1522 1523 1524 1525 1526 1526 1527 1528 1528 1529 1529 1530 1530 1531 1531 1532 1532 1533 1533 1534 1534 1534
1478 1483 1500 1510 1506 1494 1481 1488 1485 1478 1480 1484 1487 1490 1494 1497 1500 1503 1506 1509 1511 1512 1514 1516 1518 1519 1520 1521 1522 1523 1524 1524 1525 1526 1526 1527 1528 1528 1529 1529 1529 1530 1531 1531 1532 1532 1533 1533 1534
1479 1479 1477 1487 1488 1492 1484 1482 1481 1478 1481 1484 1487 1490 1493 1496 1499 1502 1505 1507 1509 1511 1513 1514 1516 1517 1518 1519 1520 1521 1522 1523 1523 1524 1525 1526 1526 1527 1527 1528 1528 1529 1529 1530 1530 1531 1532 1533 1533
1474 1475 1480 1487 1497 1501 1488 1484 1487 1483 1483 1484 1487 1490 1493 1496 1498 1501 1503 1506 1508 1509 1511 1513 1514 1515 1516 1518 1519 1520 1520 1521 1522 1522 1523 1524 1524 1525 1525 1526 1526 1527 1527 1528 1529 1530 1531 1531 1532
1474 1476 1477 1482 1483 1496 1500 1493 1476 1479 1480 1483 1486 1489 1492 1495 1497 1500 1502 1504 1507 1508 1510 1511 1512 1514 1515 1516 1517 1518 1519 1520 1520 1521 1521 1522 1522 1523 1523 1524 1524 1525 1526 1526 1527 1528 1529 1530 1530
1469 1473 1476 1488 1487 1482 1490 1493 1474 1476 1479 1482 1486 1489 1492 1494 1497 1499 1501 1503 1505 1506 1508 1509 1511 1512 1513 1514 1515 1516 1517 1518 1518 1519 1519 1520 1520 1521 1521 1522 1522 1522 1523 1524 1525 1526 1527 1528 1528